Weather History for Tracadie, NS

Change the Weather History Date:

Friday, October 18, 2013

  Actual Average Record
Temperature  
Mean Temperature 55 °F -  
Max Temperature 62 °F - - ()
Min Temperature 48 °F - - ()
Degree Days  
Heating Degree Days 10    
Growing Degree Days 5 (Base 50)    
Moisture  
Dew Point 52 °F    
Average Humidity 87    
Maximum Humidity 95    
Minimum Humidity 61    
Precipitation  
Precipitation 0.02 in - - ()
Sea Level Pressure  
Sea Level Pressure 29.67 in    
Wind  
Wind Speed 5 mph ()    
Max Wind Speed 12 mph    
Max Gust Speed -    
T = Trace of Precipitation, MM = Missing Value Source: Averaged Metar Reports

Daily Weather History Graph

Daily Weather History Graph

Search for Another Location

Airport:

Trip Planner

Search our weather history database for the weather conditions in past years. The results will help you decide how hot, cold, wet, or windy it might be!

Date:

Astronomy

Oct. 18, 2013 Rise Set
Actual Time 7:27 AM ADT 6:15 PM ADT
Civil Twilight 6:57 AM ADT 6:45 PM ADT
Nautical Twilight 6:22 AM ADT 7:19 PM ADT
Astronomical Twilight 5:48 AM ADT 7:54 PM ADT
Moon 6:01 PM ADT 6:57 AM ADT
Length of Visible Light 11h 48m
Length of Day
10h 48m
Full, 100% of the Moon is Illuminated
Oct 18
Full
Oct 18
Full
Oct 26
Last Quarter
Nov 3
New
Nov 10
First Quarter

Hourly Weather History & Observations

Time (ADT) Temp. Dew Point Humidity Pressure Visibility Wind Dir Wind Speed Gust Speed Precip Events Conditions
12:00 AM 59.5 °F 57.2 °F 92% 29.72 in - NNW 3.5 mph - N/A   Unknown
1:00 AM 57.7 °F 55.2 °F 91% 29.72 in - WNW 4.6 mph - N/A   Unknown
2:00 AM 57.2 °F 54.5 °F 91% 29.72 in - West 5.8 mph - N/A   Unknown
3:00 AM 56 °F 53 °F 88% 29.73 in - West 4.6 mph - -  
3:00 AM 55.8 °F 53.4 °F 92% 29.73 in - West 4.6 mph - N/A   Unknown
4:00 AM 52.9 °F 50.9 °F 93% 29.72 in - WSW 3.5 mph - N/A   Unknown
5:00 AM 52.5 °F 50.9 °F 94% 29.72 in - SSW 3.5 mph - N/A   Unknown
6:00 AM 50.0 °F 48.4 °F 94% 29.72 in - SSW 4.6 mph - N/A   Unknown
7:00 AM 49.8 °F 48.4 °F 95% 29.73 in - SSW 5.8 mph - N/A   Unknown
8:00 AM 48.4 °F 46.9 °F 95% 29.73 in - SW 3.5 mph - N/A   Unknown
9:00 AM 52 °F 50 °F 92% 29.74 in - WSW 4.6 mph - -  
9:00 AM 52.3 °F 50.4 °F 93% 29.74 in - WSW 4.6 mph - N/A   Unknown
10:00 AM 54.5 °F 50.9 °F 88% 29.74 in - West 1.2 mph - N/A   Unknown
11:00 AM 57.9 °F 52.2 °F 81% 29.71 in - SSW 3.5 mph - N/A   Unknown
12:00 PM 61.0 °F 53.4 °F 76% 29.73 in - SW 5.8 mph - N/A   Unknown
1:00 PM 59.2 °F 51.3 °F 75% 29.70 in - South 6.9 mph - N/A   Unknown
2:00 PM 60.3 °F 52.5 °F 76% 29.68 in - SSW 8.1 mph - N/A   Unknown
3:00 PM 61 °F 51 °F 61% 29.66 in - SSW 8.1 mph - -  
3:00 PM 60.8 °F 50.9 °F 70% 29.66 in - SSW 8.1 mph - N/A   Unknown
4:00 PM 61.3 °F 52.2 °F 72% 29.64 in - South 8.1 mph - N/A   Unknown
5:00 PM 58.3 °F 51.3 °F 77% 29.62 in - South 11.5 mph - N/A   Unknown
6:00 PM 56.3 °F 52.0 °F 85% 29.60 in - South 8.1 mph - N/A   Unknown
7:00 PM 55.9 °F 53.4 °F 91% 29.58 in - South 10.4 mph - N/A   Unknown
8:00 PM 55.9 °F 54.1 °F 94% 29.58 in - SW 4.6 mph - 0.02 in   Unknown
9:00 PM 56 °F 55 °F 94% 29.56 in - South 10.4 mph - -  
9:00 PM 56.5 °F 54.7 °F 94% 29.56 in - South 10.4 mph - N/A   Unknown
10:00 PM 57.7 °F 55.8 °F 93% 29.57 in - SW 9.2 mph - N/A   Unknown
11:00 PM 57.2 °F 54.9 °F 92% 29.57 in - SW 6.9 mph - N/A   Unknown